• Join FlightAware (Why Join?)
  • Login
  • US Flag 
02:40AM EDT


 

Airport Tracker/Info


-or-


 

Live Flight TrackerFlight Track Log ✈ N770NC ✈ 10-Jun-2013 ✈ KATL - KBNA

Flight Track Log - Related Links

Times and Time Zones

All times are in EDT time to prevent confusion due to time zone crossing. See the N770NC flight status page for this flight to view local times or setup timezone preferences in your user account.

Time Position Orientation Groundspeed Altitude Reporting Facility
EDT Latitude Longitude Course Direction KTS MPH feet Rate Location/Type
06:33PM 33.6514 -84.4906 328° Northwest 428 493 2,200  Level Atlanta Center
06:34PM 33.6742 -84.5756 288° West 306 352 4,600 2,400 Climbing Atlanta Center
06:35PM 33.7469 -84.5958 347° North 243 280 7,000 2,220 Climbing Atlanta Center
06:36PM 34.0202 -84.5184 349° North  Level FlightAware Approximate
06:36PM 33.8242 -84.6039 355° North 282 325 9,100  Level Atlanta Center
06:37PM 34.1108 -84.5412 347° North  Level FlightAware Approximate
06:37PM 33.9119 -84.6144 354° North 293 337 10,200  Level Atlanta Center
06:38PM 34.2051 -84.5705 328° Northwest  Level FlightAware Approximate
06:38PM 33.9972 -84.6403 346° North 326 375 10,800  Level Atlanta Center
06:39PM 34.2877 -84.6336 328° Northwest  Level FlightAware Approximate
06:39PM 34.0994 -84.6761 344° North 368 423 12,800  Level Atlanta Center
06:40PM 34.1953 -84.7294 335° Northwest 379 436 14,100 1,680 Climbing Atlanta Center
06:41PM 34.2844 -84.7981 328° Northwest 379 436 16,200 1,740 Climbing Atlanta Center
06:42PM 34.3883 -84.8669 331° Northwest 384 442 17,600 1,320 Climbing Atlanta Center
06:43PM 34.4903 -84.9208 336° Northwest 384 442 18,900 1,500 Climbing Atlanta Center
06:44PM 34.5900 -84.9775 335° Northwest 390 449 20,700 1,500 Climbing Atlanta Center
06:45PM 34.6814 -85.0239 337° Northwest 405 466 22,000 1,140 Climbing Atlanta Center
06:46PM 34.7853 -85.0808 336° Northwest 399 459 23,000 900 Climbing Atlanta Center
06:47PM 34.8956 -85.1353 338° Northwest 399 459 23,800 540 Climbing Atlanta Center
06:48PM 34.9969 -85.2128 328° Northwest 411 473 24,100 60 Climbing Atlanta Center
06:50PM 35.1222 -85.3789 313° West 414 476 24,000 -60 Descending Memphis Center
06:51PM 35.1972 -85.4836 311° West 414 476 24,000  Level Memphis Center
06:52PM 35.2681 -85.5889 310° West 414 476 24,000 -720 Level Memphis Center
06:53PM 35.3550 -85.6781 320° Northwest 408 470 22,600 -2,340 Descending Memphis Center
06:54PM 35.4472 -85.7492 328° Northwest 399 459 19,400 -3,300 Descending Memphis Center
06:55PM 35.5336 -85.8261 324° Northwest 393 452 16,000 -3,120 Descending Memphis Center
06:56PM 35.6203 -85.9133 321° Northwest 379 436 13,200 -2,580 Descending Memphis Center
06:57PM 35.7061 -85.9803 328° Northwest 372 428 10,900 -1,560 Descending Memphis Center
06:58PM 35.7886 -86.0142 342° North 330 380 10,100 -1,500 Descending Memphis Center
06:59PM 35.8647 -86.0461 341° North 296 341 8,000 -1,980 Descending Memphis Center
07:00PM 35.9267 -86.0889 331° Northwest 260 299 6,200 -1,440 Descending Memphis Center
07:01PM 35.9767 -86.1481 316° Northwest 247 284 5,200 -600 Descending Memphis Center
07:02PM 36.0242 -86.1994 319° Northwest 252 290 5,100 -420 Descending Memphis Center
07:03PM 36.0783 -86.2556 320° Northwest 252 290 4,400 -540 Descending Memphis Center
07:04PM 36.1181 -86.3256 305° West 247 284 4,100 -180 Descending Memphis Center
07:05PM 36.1575 -86.3881 308° West 241 277 4,100  Level Memphis Center
07:06PM 36.1783 -86.4511 292° West 209 241 4,100 -300 Level Memphis Center
07:07PM 36.2008 -86.5067 297° West 191 220 3,500 -600 Descending Memphis Center